Probability
0 0 0 0 0 0 0 0 0 0 0 0 0 0 0 0 0 0 0 0 0 0 0 0 0 0 0 0 0 0 0 0 0 0 0 0 0 0 0 0 0 0 0
0 0 0 0 0 0 0 0 0 0 0 0 0 0 0 0 0 0 0 0 0 0 0 0 0 0 0 0 0 0 0 0 0 0 0 0 0 0 0 0 0 0 0
0 0 0 0 0 0 0 0 0 0 0 0 0 0 0 0 0 0 0 0 0 0 0 0 0 0 0 0 0 0 0 0 0 0 0 0 0 0 0 0 0 0 0
0 0 0 0 0 0 0 0 0 0 0 0 0 0 0 0 0 0 0 0 0 0 0 0 0 0 0 0 0 0 0 0 0 0 0 0 0 0 0 0 0 0 0
0 0 0 0 0 0 0 0 0 0 0 0 0 0 0 0 0 0 0 0 0 0 0 0 0 0 0 0 0 0 0 0 0 0 0 0 0 0 0 0 0 0 0
0 0 0 0 0 0 0 0 0 0 0 0 0 0 0 0 0 0 0 0 0 0 0 0 0 0 0 0 0 0 0 0 0 0 0 0 0 0 0 0 0 0 0
0 0 0 0 0 0 0 0 0 0 0 0 0 0 0 0 0 0 0 0 0 0 0 0 0 0 0 0 0 0 0 0 0 0 0 0 0 0 0 0 0 0 0
0 0 0 0 0 0 0 0 0 0 0 0 0 0 0 0 0 0 0 0 0 0 0 0 0 0 0 0 0 0 0 0 0 0 0 0 0 0 0 0 0 0 0
0 0 0 0 0 0 0 0 0 0 0 0 0 0 0 0 0 0 0 0 0 0 0 0 0 0 0 0 0 0 0 0 0 0 0 0 0 0 0 0 0 0 0
0 0 0 0 0 0 0 0 0 0 0 0 0 0 0 0 0 0 0 0 0 0 0 0 0 0 0 0 0 0 0 0 0 0 0 0 0 0 0 0 0 0 0
0 0 0 0 0 0 0 0 0 0 0 0 0 0 0 0 0 0 0 0 0 0 0 0 0 0 0 0 0 0 0 0 0 0 0 0 0 0 0 0 0 0 0
0 0 0 0 0 0 0 0 0 0 0 0 0 0 0 0 0 0 0 0 0 0 0 0 0 0 0 0 0 0 0 0 0 0 0 0 0 0 0 0 0 0 0
0 0 0 0 0 0 0 0 0 0 0 0 0 0 0 0 0 0 0 0 0 0 0 0 0 0 0 0 0 0 0 0 0 0 0 0 0 0 0 0 0 0 0
0 0 0 0 0 0 0 0 0 0 0 0 0 0 0 0 0 0 0 0 0 0 0 0 0 0 0 0 0 0 0 0 0 0 0 0 0 0 0 0 0 0 0
0 0 0 0 0 0 0 0 0 0 0 0 0 0 0 0 0 0 0 0 0 0 0 0 0 0 0 0 0 0 0 0 0 0 0 0 0 0 0 0 0 0 0
0 0 0 0 0 0 0 0 0 0 0 0 0 0 0 0 0 0 0 0 0 0 0 0 0 0 0 0 0 0 0 0 0 0 0 0 0 0 0 0 0 0 0
0 0 0 0 0 0 0 0 0 0 0 0 0 0 0 0 0 0 0 0 0 0 0 0 0 0 0 0 0 0 0 0 0 0 0 0 0 0 0 0 0 0 0
0 0 0 0 0 0 0 0 0 0 0 0 0 0 0 0 0 0 0 0 0 0 0 0 0 0 0 0 0 0 0 0 0 0 0 0 0 0 0 0 0 0 0
0 0 0 0 0 0 0 0 0 0 0 0 0 0 0 0 0 0 0 0 0 0 0 0 0 0 0 0 0 0 0 0 0 0 0 0 0 0 0 0 0 0 0
0 0 0 0 0 0 0 0 0 0 0 0 0 0 0 0 0 0 0 0 0 0 0 0 0 0 0 0 0 0 0 0 0 0 0 0 0 0 0 0 0 0 0
0 0 0 0 0 0 0 0 0 0 0 0 0 0 0 0 0 0 0 0 0 0 0 0 0 0 0 0 0 0 0 0 0 0 0 0 0 0 0 0 0 0 0
0 0 0 0 0 0 0 0 0 0 0 0 0 0 0 0 0 0 0 0 0 0 0 0 0 0 0 0 0 0 0 0 0 0 0 0 0 0 0 0 0 0 0
0 0 0 0 0 0 0 0 0 0 0 0 0 0 0 0 0 0 0 0 0 0 0 0 0 0 0 0 0 0 0 0 0 0 0 0 0 0 0 0 0 0 0
0 0 0 0 0 0 0 0 0 0 0 0 0 0 0 0 0 0 0 0 0 0 0 0 0 0 0 0 0 0 0 0 0 0 0 0 0 0 0 0 0 0 0
0 0 0 0 0 0 0 0 0 0 0 0 0 0 0 0 0 0 0 0 0 0 0 0 0 0 0 0 0 0 0 0 0 0 0 0 0 0 0 0 0 0 0
0 0 0 0 0 0 0 0 0 0 0 0 0 0 0 0 0 0 0 0 0 0 0 0 0 0 0 0 0 0 0 0 0 0 0 0 0 0 0 0 0 0 0
Wind_Speed
2 3 4 5 6 6 7 7 7 7 7 4 4 4 3 2 1 1 2 2 2 2 3 2 2 2 3 3 3 2 3 3 2 2 4 5 6 6 6 5 5 6 7
4 3 4 4 5 5 6 6 7 6 6 4 3 3 3 2 1 1 1 0 1 1 2 2 2 2 2 3 2 2 2 2 1 1 3 4 4 4 4 4 4 6 4
9 6 5 4 5 5 5 6 6 6 6 6 4 4 4 3 2 1 1 1 1 1 1 2 2 2 2 2 3 3 3 3 2 3 3 3 4 4 4 4 4 4 4
8 7 6 5 5 4 5 6 6 6 6 6 5 5 3 2 2 1 1 2 2 1 1 1 1 1 1 2 3 2 2 3 3 2 3 5 4 4 5 3 4 5 6
10 9 7 6 5 5 5 6 6 6 5 5 6 6 4 2 1 1 0 1 2 2 1 1 0 1 1 2 3 3 3 3 3 3 3 4 4 5 6 8 5 4 5
9 8 6 6 5 4 5 6 7 5 5 5 5 6 5 4 2 1 0 1 1 2 2 1 1 1 2 3 3 3 4 4 4 4 4 4 4 4 5 8 8 7 5
11 11 10 8 7 6 6 6 7 5 5 5 5 5 5 4 3 2 1 0 1 1 2 1 1 2 3 3 3 3 4 4 5 5 5 5 6 5 5 8 9 9 6
11 12 12 10 9 8 7 7 7 6 5 5 5 4 4 3 2 2 2 1 1 2 2 2 2 3 4 4 3 3 4 4 5 6 6 5 5 5 5 6 8 11 7
13 12 11 10 9 9 8 8 8 6 6 5 5 4 4 3 2 2 1 1 1 2 2 3 3 4 4 4 4 4 5 5 5 6 6 5 5 5 5 5 5 7 13
11 11 11 11 9 8 7 7 7 7 5 5 4 4 3 3 2 1 0 1 2 2 3 3 4 4 5 5 4 5 5 5 6 5 6 6 5 5 5 5 5 6 9
14 13 11 10 9 8 7 7 7 6 5 5 4 4 2 2 1 1 1 2 2 3 3 4 5 5 6 5 5 6 6 7 7 7 7 8 7 6 5 5 5 6 7
12 11 10 9 9 9 8 8 7 6 6 5 4 3 2 1 1 1 2 2 3 3 4 5 5 6 6 6 6 7 7 7 8 8 8 9 7 8 6 6 7 7 7
10 9 9 10 10 10 9 8 7 7 5 5 4 3 2 1 2 2 3 3 4 4 5 5 6 7 7 7 7 7 8 8 8 8 9 9 8 9 7 7 8 7 9
11 11 11 10 10 9 9 8 7 6 6 5 4 3 3 3 3 3 4 4 4 5 6 6 7 7 7 7 8 8 8 8 9 9 9 9 9 10 9 9 9 9 9
10 12 12 10 9 9 8 8 7 6 5 5 4 3 3 3 3 4 5 5 5 6 6 7 7 7 7 7 8 7 8 8 9 8 8 9 13 16 14 12 9 8 8
11 11 11 11 11 10 9 8 7 6 5 4 4 3 3 3 4 5 5 5 6 6 6 7 8 8 8 15 19 15 8 7 8 9 8 9 12 16 21 23 22 19 13
10 11 12 12 11 10 9 9 7 5 5 4 3 3 4 4 5 5 5 6 6 6 7 8 8 9 11 19 20 20 12 8 8 8 8 9 10 16 10 16 21 20 23
9 9 9 8 7 7 7 6 6 5 4 3 4 4 4 5 6 6 6 7 6 7 7 8 9 9 12 20 21 21 11 8 8 9 9 10 10 11 13 11 11 11 12
7 7 8 7 7 8 7 7 5 4 3 4 5 5 5 6 6 7 8 7 6 7 7 8 9 9 12 19 21 21 8 7 9 9 9 10 10 18 23 15 12 12 11
6 7 7 7 8 7 7 6 5 4 5 6 6 5 5 6 7 8 8 7 6 8 8 8 8 9 10 17 21 21 7 7 8 8 9 16 17 21 24 14 11 13 12
6 8 8 7 7 6 6 5 4 5 6 5 5 5 6 6 7 7 7 7 7 8 8 9 9 9 11 16 20 21 9 7 8 8 6 8 20 24 25 22 12 16 17
6 7 7 5 4 5 6 5 5 5 4 4 5 6 6 6 6 7 7 7 7 8 8 9 9 7 9 13 16 21 20 18 11 9 7 9 22 24 25 19 18 24 20
6 5 6 5 3 4 5 5 5 4 4 5 6 7 7 6 6 6 7 7 6 7 8 7 9 8 6 9 19 22 22 23 14 9 18 22 25 23 16 18 22 18 7
5 5 5 5 4 3 4 5 4 4 4 6 7 6 6 7 6 6 6 6 6 7 8 8 9 9 7 6 7 8 10 15 13 11 15 21 21 17 17 15 11 6 6
4 4 5 5 4 4 4 4 4 4 5 6 7 6 6 7 7 6 6 7 7 8 10 8 8 9 10 11 20 16 9 8 10 12 8 6 6 6 6 6 6 5 5
4 4 4 4 4 4 5 5 5 5 5 6 6 5 5 6 6 7 8 12 14 19 21 21 19 14 19 25 25 25 24 25 24 16 7 7 7 7 7 7 6 5 6
Wind_Direction
148 97 87 94 100 107 117 126 131 140 139 135 136 132 133 130 129 153 170 179 191 197 198 214 224 215 222 233 237 245 260 264 258 293 295 279 265 264 262 263 270 273 273
146 119 101 95 107 120 119 121 127 135 137 134 131 127 125 123 120 111 103 199 210 217 206 214 227 227 234 256 252 237 258 266 229 241 304 311 317 313 275 268 261 266 278
161 152 134 122 120 127 135 131 128 126 125 123 112 93 78 65 56 35 335 311 288 258 237 230 228 235 224 247 255 242 238 262 263 201 222 278 283 301 275 262 261 272 278
159 156 150 144 143 145 134 127 124 121 122 123 125 129 135 152 190 201 257 308 319 298 274 251 237 242 239 253 260 245 232 235 262 258 227 231 249 279 297 282 278 273 271
165 162 159 153 146 140 133 128 121 118 121 121 129 128 131 150 148 107 10 337 341 340 332 301 262 266 261 264 269 271 253 230 238 244 248 254 253 236 262 284 279 277 262
164 155 150 141 136 134 130 130 126 123 125 124 127 136 144 148 135 122 98 342 337 339 340 335 312 283 274 272 270 265 262 251 248 249 241 240 247 251 251 273 283 279 267
164 160 159 160 157 154 150 144 138 136 137 131 132 140 146 148 153 160 169 190 315 315 311 318 295 283 274 274 272 270 268 260 256 253 252 247 247 249 256 273 285 283 274
173 170 171 168 167 166 161 156 151 148 147 141 138 137 138 139 150 161 170 195 227 252 273 294 292 289 290 290 284 277 271 266 261 264 261 259 258 252 251 260 284 293 286
180 176 173 172 171 170 170 166 158 152 153 148 140 139 141 141 153 164 168 210 251 270 291 298 298 297 295 292 289 276 276 275 266 264 265 263 261 257 255 255 255 277 294
182 180 178 177 175 172 166 162 158 157 156 151 150 150 155 156 157 154 224 272 284 291 303 303 300 297 295 292 288 282 277 276 272 265 267 266 264 260 256 253 253 251 273
187 184 182 178 170 163 161 160 160 152 153 155 152 146 153 150 143 177 249 267 276 290 294 294 296 295 294 291 287 281 281 277 277 277 273 270 268 266 262 257 256 257 262
187 182 175 170 168 167 166 164 162 159 162 158 151 152 154 150 173 250 268 273 281 286 286 289 291 289 288 286 283 283 283 278 279 279 276 274 275 268 263 260 260 263 260
182 176 174 176 176 172 168 166 163 162 158 152 149 154 170 199 238 259 271 277 280 286 288 286 285 285 285 284 280 275 275 273 272 272 272 273 273 273 269 263 265 266 270
185 181 181 181 176 171 168 164 163 160 156 153 157 177 209 229 246 260 270 274 277 281 283 281 279 279 281 282 279 276 273 271 269 267 265 266 265 268 270 271 266 266 269
187 186 183 177 171 166 165 163 162 160 156 157 173 205 224 238 253 265 270 273 275 275 276 279 281 280 281 278 279 275 270 270 271 269 264 262 271 276 280 281 273 268 271
193 186 178 172 172 170 167 163 164 165 159 170 197 216 232 248 259 265 269 273 275 276 275 275 276 279 283 297 303 302 284 273 272 275 271 271 279 285 289 291 291 288 283
188 181 179 177 174 171 166 168 168 161 165 185 209 227 239 254 262 266 270 271 272 272 276 275 273 273 280 295 302 303 300 281 274 273 275 282 282 292 281 284 287 286 284
181 177 170 166 160 156 154 152 151 159 175 200 227 239 244 255 265 268 268 269 267 269 271 273 272 273 280 296 303 305 300 280 272 268 268 272 274 276 283 273 270 267 269
172 165 159 151 146 150 151 145 152 164 188 221 237 243 243 253 262 265 267 268 269 272 270 269 272 273 281 294 302 303 289 277 274 269 268 274 273 281 291 289 280 278 273
140 139 135 132 142 151 146 146 167 186 217 231 239 245 246 250 257 262 267 268 267 270 274 275 272 272 275 289 299 302 286 279 278 273 267 278 285 289 293 288 280 282 281
132 134 136 143 153 152 146 160 187 217 230 237 247 254 253 253 257 263 265 270 273 276 276 278 276 271 274 288 295 299 294 278 280 280 274 269 288 292 292 291 283 281 286
135 138 138 143 151 153 155 181 217 232 238 245 254 259 261 263 268 265 271 272 274 279 280 282 283 273 273 285 292 296 296 296 289 284 278 276 289 291 292 293 289 292 297
145 141 143 148 165 174 173 200 232 237 243 253 259 264 268 266 264 265 272 278 275 276 282 282 285 285 271 276 291 296 298 297 293 281 287 292 295 297 295 290 291 294 291
153 146 148 163 192 205 207 218 236 239 244 257 265 267 270 272 270 265 265 270 272 275 280 282 285 287 283 272 271 271 281 288 290 286 286 292 294 292 288 289 290 278 266
158 157 168 187 210 221 235 241 241 242 252 261 266 270 268 269 274 269 262 268 257 262 277 277 275 285 290 285 293 296 289 283 279 290 281 277 278 275 273 271 267 263 269
160 167 184 203 223 233 248 254 250 243 250 264 268 268 269 270 271 278 284 276 276 286 287 288 288 287 289 296 299 301 301 302 300 300 288 285 282 281 280 279 274 265 262